Regional Weather Roundup
Issued by NWS Jackson, KY

Home | Current Version | Previous Version | Text Only | Print | Product List | Glossary On
Versions: 1 2 3 4 5 6 7 8 9 10 11 12 13 14 15 16 17 18 19 20 21 22 23 24 25 26 27 28 29 30 31 32 33 34 35 36 37 38 39 40 41 42 43 44 45 46 47 48 49 50
373
ASUS43 KJKL 220210
RWRJKL

EAST KENTUCKY HOURLY WEATHER ROUNDUP
NATIONAL WEATHER SERVICE JACKSON KY
1000 PM EDT MON AUG 21 2017

NOTE: "FAIR" INDICATES FEW OR NO CLOUDS BELOW 12,000 FEET WITH
NO SIGNIFICANT WEATHER AND/OR OBSTRUCTIONS TO VISIBILITY.

* THESE REPORTS ARE NOT UNDER NWS QUALITY CONTROL AND MAY NOT
  REPORT WEATHER SUCH AS PRECIPITATION AND FOG.

KYZ079-080-083-085-087-088-110-112-115-119-120-220300
...EASTERN KENTUCKY...

CITY           SKY/WX    TMP DP  RH WIND       PRES   REMARKS
JACKSON        CLEAR     79  68  69 CALM      30.17S
LONDON         CLEAR     76  71  85 CALM      30.17R
SOMERSET*      PTCLDY    73  70  88 CALM      30.17R
MONTICELLO*    CLEAR     71  70  96 W8        30.18R
WILLIAMSBURG*  CLEAR     75  73  94 CALM      30.17R
MIDDLESBORO*   CLEAR     73  68  84 W3        30.20R
HARLAN APT*    CLEAR     72  68  88 CALM      30.21R
PIKE CO APT*     N/A     78  72  80 CALM      30.19R
BIG SANDY APT* CLEAR     76  74  93 CALM      30.17S
MOREHEAD APT*  PTCLDY    77  70  78 CALM      30.15S
$$

KYZ035-036-041-042-044-050-067-078-099-220300
...CENTRAL KENTUCKY...

CITY           SKY/WX    TMP DP  RH WIND       PRES   REMARKS
MT STERLING*   PTCLDY    77  70  78 SW5       30.15F
FLEMING/MASON* PTCLDY    77  71  80 S3        30.13F
DANVILLE*      MOCLDY    73  70  88 CALM      30.15S
LEXINGTON      PTCLDY    78  67  68 S6        30.13S
FRANKFORT      CLOUDY    78  69  73 S5        30.10S
LOUISVILLE     CLOUDY    86  70  58 S8        30.08R HX  90
LEBANON*         N/A     77  70  78 CALM      30.13R
GLASGOW*       CLEAR     74  68  82 CALM      30.13R
BOWLING GREEN  CLOUDY    83  71  67 S5        30.11R
$$

KYZ091>093-OHZ055-061-077-WVZ005-015-034-035-042-220300
...SOUTHERN OHIO/WEST VIRGINIA...

CITY           SKY/WX    TMP DP  RH WIND       PRES   REMARKS
COVINGTON      CLOUDY    78  72  81 S6        30.09S
COLUMBUS       CLOUDY    81  69  67 S6        30.09R
DAYTON         MOCLDY    79  67  66 SW9       30.10R
WILMINGTON     MOCLDY    75  71  87 S5        30.10S
HUNTINGTON     CLOUDY    77  69  76 CALM      30.13R
CHARLESTON     PTCLDY    74  69  85 CALM      30.15R
PINEVILLE*     CLEAR     70  68  94 MISG      30.26R
BECKLEY        CLEAR     70  63  78 S8        30.26R
BLUEFIELD      PTCLDY    73  63  70 SW3       30.29R
LOGAN CO APT*    N/A     75  72  88 CALM      30.20R
$$

VAZ002-007-008-TNZ017-027-036-066-071-220300
...SOUTHWEST VIRGINIA/EAST TENNESSEE...

CITY           SKY/WX    TMP DP  RH WIND       PRES   REMARKS
WISE*          CLEAR     72  63  73 CALM      30.29R
JONESVILLE*      N/A     72  68  88 CALM      30.22R
ABINGDON*      CLEAR     74  69  84 CALM      30.25R
BRISTOL        PTCLDY    73  70  90 CALM      30.20R
MORRISTOWN*    PTCLDY    79  70  73 CALM      30.17S
SEVIERVILLE*   CLEAR     75  66  73 CALM      30.16R
KNOXVILLE      CLEAR     80  69  69 CALM      30.16R
LAFOLLETTE*    CLEAR     72  70  94 CALM      30.21R
OAK RIDGE      CLEAR     77  71  82 CALM      30.17R
CROSSVILLE     CLEAR     71  68  90 CALM      30.22R
NASHVILLE      PTCLDY    83  70  64 CALM      30.13R
$$

...KEY TO REMARKS...
VSB - VISIBILITY IN MILES
WCI - WIND CHILL INDEX
HX  - HEAT INDEX

$$




USA.gov is the U.S. government's official web portal to all federal, state and local government web resources and services.